Slayton, MN

9:09 PM CST on December 11, 2017 (GMT -0600)
Slayton

Weather History for KDVP - May, 2014

Change the Weather History Date:

Monday, May 12, 2014

  Actual Average (KOTG) Record (KOTG)
Temperature  
Mean Temperature 47 °F -  
Max Temperature 52 °F 64 °F 81 °F (1991)
Min Temperature 42 °F 43 °F 28 °F (2013)
Degree Days  
Heating Degree Days 18    
Moisture  
Dew Point 45 °F    
Average Humidity 97    
Maximum Humidity 100    
Minimum Humidity 90    
Precipitation  
Precipitation 0.43 in - - ()
Sea Level Pressure  
Sea Level Pressure 29.82 in    
Wind  
Wind Speed 19 mph (NNW)    
Max Wind Speed 25 mph    
Max Gust Speed 33 mph    
Visibility 5 miles    
Events Rain    
Averages and records for this station are not official NWS values.
T = Trace of Precipitation, MM = Missing Value Source: NWS Daily Summary

Daily Weather History Graph

Daily Weather History Graph

Search for Another Location

Airport or City:

Trip Planner

Search our weather history database for the weather conditions in past years. The results will help you decide how hot, cold, wet, or windy it might be!

Date:

Astronomy

May. 12, 2014 Rise Set
Actual Time 6:00 AM CDT 8:39 PM CDT
Civil Twilight 5:27 AM CDT 9:12 PM CDT
Nautical Twilight 4:45 AM CDT 9:54 PM CDT
Astronomical Twilight 3:58 AM CDT 10:41 PM CDT
Moon 6:34 PM CDT 4:45 AM CDT
Length of Visible Light 15h 44m
Length of Day
14h 38m
Waxing Gibbous, 95% of the Moon is Illuminated
May 12
Waxing Gibbous
May 14
Full
May 21
Last Quarter
May 28
New
Jun 5
First Quarter

Hourly Weather History & Observations

Time (CDT) Temp. Windchill Dew Point Humidity Pressure Visibility Wind Dir Wind Speed Gust Speed Precip Events Conditions
12:15 AM 52.5 °F - 52.0 °F 98% 29.78 in 1.8 mi NNW 20.7 mph 27.6 mph 0.21 in Rain Heavy Rain
12:34 AM 52.0 °F - 51.8 °F 99% 29.77 in 3.0 mi North 19.6 mph 26.5 mph 0.37 in Rain Heavy Rain
12:55 AM 51.8 °F - 51.4 °F 99% 29.77 in 7.0 mi North 16.1 mph 21.9 mph 0.42 in Rain Light Rain
1:14 AM 51.8 °F - 51.4 °F 99% 29.77 in 7.0 mi North 16.1 mph 23.0 mph N/A Rain Light Rain
1:34 AM 52.0 °F - 51.6 °F 99% 29.75 in 7.0 mi North 18.4 mph 23.0 mph N/A   Overcast
1:55 AM 51.8 °F - 51.3 °F 98% 29.74 in 5.0 mi North 17.3 mph 21.9 mph N/A   Overcast
2:15 AM 51.8 °F - 51.3 °F 98% 29.74 in 5.0 mi North 13.8 mph 20.7 mph N/A   Overcast
2:34 AM 51.4 °F - 51.1 °F 99% 29.74 in 5.0 mi North 17.3 mph 23.0 mph N/A   Overcast
2:55 AM 51.3 °F - 51.1 °F 99% 29.74 in 5.0 mi North 17.3 mph - N/A   Overcast
3:15 AM 51.3 °F - 50.9 °F 99% 29.74 in 5.0 mi NNW 18.4 mph - N/A   Overcast
3:35 AM 50.9 °F - 50.7 °F 99% 29.75 in 5.0 mi NNW 17.3 mph 20.7 mph N/A   Overcast
3:54 AM 50.9 °F - 50.5 °F 99% 29.75 in 5.0 mi NNW 19.6 mph 24.2 mph N/A   Overcast
4:15 AM 50.9 °F - 50.5 °F 99% 29.74 in 5.0 mi NNW 18.4 mph 21.9 mph N/A   Overcast
4:35 AM 50.9 °F - 50.5 °F 99% 29.73 in 4.0 mi NNW 24.2 mph 28.8 mph N/A   Overcast
4:54 AM 50.2 °F - 50.0 °F 99% 29.73 in 2.5 mi North 23.0 mph 29.9 mph N/A   Overcast
5:15 AM 49.3 °F - 48.9 °F 99% 29.73 in 2.0 mi North 23.0 mph 29.9 mph N/A   Overcast
5:35 AM 47.8 °F - 47.5 °F 99% 29.75 in 2.5 mi NNW 19.6 mph 26.5 mph N/A Rain Light Rain
5:55 AM 46.9 °F - 46.8 °F 99% 29.76 in 2.0 mi NNW 18.4 mph 26.5 mph N/A Rain Light Rain
6:14 AM 46.4 °F 38.5 °F 46.2 °F 99% 29.76 in 2.5 mi NNW 21.9 mph 26.5 mph N/A Rain Light Rain
6:34 AM 46.0 °F 38.5 °F 45.9 °F 99% 29.75 in 2.5 mi NNW 19.6 mph 29.9 mph N/A   Overcast
6:54 AM 45.3 °F 37.3 °F 45.0 °F 99% 29.75 in 4.0 mi NNW 20.7 mph 27.6 mph N/A   Overcast
7:14 AM 45.5 °F 37.6 °F 45.1 °F 99% 29.77 in 3.0 mi NNW 20.7 mph 26.5 mph N/A   Overcast
7:35 AM 45.0 °F 37.9 °F 44.8 °F 99% 29.78 in 3.0 mi NNW 16.1 mph 27.6 mph N/A   Overcast
7:54 AM 44.6 °F 37.4 °F 44.2 °F 99% 29.77 in 2.5 mi NNW 16.1 mph 26.5 mph N/A   Overcast
8:14 AM 44.1 °F 36.2 °F 43.9 °F 99% 29.77 in 2.0 mi NNW 18.4 mph 27.6 mph N/A   Overcast
8:35 AM 44.2 °F 35.9 °F 44.2 °F 100% 29.79 in 2.5 mi NNW 20.7 mph 27.6 mph N/A   Overcast
9:15 AM 43.7 °F 35.4 °F 43.7 °F 100% 29.80 in 1.5 mi NNW 19.6 mph 26.5 mph N/A   Overcast
9:34 AM 43.7 °F 36.6 °F 43.7 °F 100% 29.80 in 2.0 mi NNW 15.0 mph 24.2 mph N/A   Overcast
9:55 AM 43.2 °F 34.7 °F 43.2 °F 100% 29.81 in 2.0 mi NNW 19.6 mph 25.3 mph N/A   Overcast
10:15 AM 43.0 °F 35.1 °F 43.0 °F 100% 29.82 in 2.5 mi NNW 17.3 mph - N/A   Overcast
10:35 AM 43.0 °F 34.8 °F 43.0 °F 100% 29.80 in 1.8 mi NNW 18.4 mph - N/A   Light Drizzle
10:55 AM 42.6 °F 34.3 °F 42.6 °F 100% 29.80 in 2.5 mi NNW 18.4 mph 25.3 mph N/A Rain Light Rain
11:14 AM 43.3 °F 35.2 °F 43.3 °F 100% 29.80 in 2.5 mi NNW 18.4 mph 24.2 mph N/A Rain Light Rain
11:35 AM 43.2 °F 34.7 °F 43.2 °F 100% 29.80 in 1.5 mi NNW 19.6 mph 24.2 mph N/A   Overcast
11:54 AM 43.0 °F 35.1 °F 43.0 °F 100% 29.81 in 1.0 mi NNW 17.3 mph 24.2 mph N/A   Overcast
12:14 PM 42.8 °F 35.1 °F 42.8 °F 100% 29.83 in 1.2 mi NNW 16.1 mph 19.6 mph N/A   Overcast
12:35 PM 43.0 °F 36.4 °F 43.0 °F 100% 29.82 in 1.0 mi NNW 12.7 mph 19.6 mph N/A Rain Light Rain
12:54 PM 43.2 °F 35.3 °F 43.2 °F 100% 29.82 in 1.5 mi NNW 17.3 mph 23.0 mph N/A Rain Light Rain
1:14 PM 43.2 °F 35.3 °F 43.2 °F 100% 29.82 in 1.8 mi NNW 17.3 mph 24.2 mph N/A   Light Drizzle
1:35 PM 43.0 °F 35.4 °F 43.0 °F 100% 29.82 in 1.5 mi NNW 16.1 mph 20.7 mph N/A Rain Light Rain
1:55 PM 42.8 °F 34.8 °F 42.8 °F 100% 29.82 in 1.5 mi NNW 17.3 mph 24.2 mph N/A Rain Light Rain
2:34 PM 42.8 °F 34.0 °F 42.8 °F 100% 29.84 in 1.5 mi NW 20.7 mph 24.2 mph N/A Rain Light Rain
2:55 PM 42.4 °F 33.8 °F 42.4 °F 100% 29.84 in 1.5 mi NW 19.6 mph 26.5 mph N/A Rain Light Rain
3:15 PM 42.3 °F 33.6 °F 42.3 °F 100% 29.84 in 2.0 mi NW 19.6 mph 26.5 mph N/A Rain Light Rain
3:34 PM 42.8 °F 34.5 °F 42.8 °F 100% 29.84 in 2.5 mi NW 18.4 mph 25.3 mph N/A Rain Light Rain
3:54 PM 43.0 °F 35.4 °F 43.0 °F 100% 29.85 in 3.0 mi NNW 16.1 mph 25.3 mph 0.01 in Rain Light Rain
4:14 PM 43.0 °F 34.5 °F 43.0 °F 100% 29.84 in 4.0 mi NW 19.6 mph 24.2 mph N/A   Light Drizzle
4:33 PM 43.0 °F 34.2 °F 43.0 °F 100% 29.85 in 3.0 mi NNW 20.7 mph 26.5 mph N/A Rain Rain
4:54 PM 43.7 °F 35.7 °F 43.7 °F 100% 29.85 in 3.0 mi NW 18.4 mph 26.5 mph N/A Rain Light Rain
5:15 PM 43.7 °F 35.2 °F 43.3 °F 99% 29.86 in 7.0 mi NW 20.7 mph 28.8 mph N/A   Overcast
5:35 PM 44.6 °F 37.2 °F 43.0 °F 94% 29.87 in 10.0 mi NW 17.3 mph 27.6 mph N/A   Overcast
5:54 PM 44.6 °F 36.6 °F 42.4 °F 92% 29.88 in 7.0 mi NNW 19.6 mph 29.9 mph N/A   Overcast
6:15 PM 44.1 °F 34.8 °F 42.1 °F 93% 29.88 in 10.0 mi NW 25.3 mph 31.1 mph N/A   Overcast
6:35 PM 43.7 °F 34.5 °F 41.9 °F 93% 29.87 in 10.0 mi NW 24.2 mph 32.2 mph N/A   Overcast
6:54 PM 43.7 °F 35.0 °F 41.9 °F 93% 29.87 in 10.0 mi NW 21.9 mph 29.9 mph N/A   Overcast
7:15 PM 43.7 °F 34.3 °F 41.4 °F 91% 29.88 in 10.0 mi NW 25.3 mph 33.4 mph N/A   Overcast
7:35 PM 43.7 °F 35.0 °F 41.2 °F 91% 29.89 in 10.0 mi NW 21.9 mph 29.9 mph N/A   Overcast
7:55 PM 43.7 °F 34.7 °F 41.4 °F 91% 29.90 in 10.0 mi NW 23.0 mph 33.4 mph N/A   Overcast
8:14 PM 43.5 °F 34.5 °F 41.9 °F 94% 29.91 in 5.0 mi NW 23.0 mph 29.9 mph N/A   Overcast
8:54 PM 43.7 °F 34.3 °F 41.5 °F 92% 29.92 in 7.0 mi NW 25.3 mph 31.1 mph N/A   Overcast
9:16 PM 43.7 °F 34.5 °F 41.2 °F 91% 29.91 in - NW 24.2 mph - N/A   Unknown
9:34 PM 43.5 °F 34.3 °F 41.2 °F 91% 29.92 in 10.0 mi NW 24.2 mph - N/A   Overcast
10:15 PM 43.3 °F 34.0 °F 40.6 °F 90% 29.95 in 10.0 mi NW 24.2 mph 32.2 mph N/A   Overcast
10:35 PM 43.2 °F 34.2 °F 40.5 °F 90% 29.96 in 10.0 mi NW 21.9 mph 29.9 mph N/A   Overcast
10:54 PM 43.0 °F 34.0 °F 40.1 °F 90% 29.96 in 10.0 mi NW 21.9 mph 29.9 mph N/A   Overcast
11:14 PM 43.0 °F 34.2 °F 40.1 °F 90% 29.96 in 10.0 mi NW 20.7 mph 25.3 mph N/A   Overcast
11:35 PM 42.8 °F 33.8 °F 39.9 °F 90% 29.97 in 10.0 mi NW 21.9 mph 31.1 mph N/A   Overcast
11:55 PM 42.4 °F 34.1 °F 39.7 °F 90% 29.97 in 10.0 mi NW 18.4 mph 27.6 mph N/A   Overcast